Location: Unspecified
(0.0000°N, 0.0000°E)
Time: 10:23:57
(UTC+00:00)

SR - Pass Details

Date: 20 December 2018
Orbit: 581 x 876 km, 66.7° (Epoch: 18 January)

Event Time Altitude Azimuth Distance (km) Brightness Sun altitude
Rises 12:20:40 0° 301° (WNW) 2,793 ? 65.9°
Reaches altitude 10° 12:24:55 10° 259° (W) 1,891 ? 65.6°
Maximum altitude 12:25:39 10° 249° (WSW) 1,868 ? 65.6°
Drops below altitude 10° 12:26:23 10° 239° (WSW) 1,896 ? 65.5°
Sets 12:30:42 0° 197° (SSW) 2,829 ? 65.2°
